Location: T�bingen+AIT
(48.5342°N, 9.0700°E)
Time: 20:27:52
(UTC+02:00)

Spot 1 - Pass Details

Date: 14 September 2017
Orbit: 576 x 779 km, 98.7° (Epoch: 19 September)

Event Time Altitude Azimuth Distance (km) Brightness Sun altitude
Exits shadow 22:02:09 57° 184° (S) 770 4.3 -23.0°
Maximum altitude 22:03:00 79° 254° (WSW) 667 4.1 -23.1°
Drops below altitude 10° 22:07:22 10° 343° (NNW) 2,004 7.4 -23.7°
Sets 22:09:30 0° 345° (NNW) 2,888 8.3 -24.0°
